Location: CNYAC Observatory
(43.2150°N, 74.9500°W)
Time: 09:57:59
(UTC-04:00)

Cosmos 1975 Rocket - Visible Passes

Search period start: 30 August 2015 00:00
Search period end: 09 September 2015 00:00
Orbit: 603 x 636 km, 82.5° (Epoch: 29 August)

Date Brightness Start Highest point End Pass type
(mag) Time Alt. Az. Time Alt. Az. Time Alt. Az.
30 Aug 5.5 04:29:58 10° SE 04:33:15 21° E 04:36:38 10° NE visible
31 Aug 4.4 04:46:35 10° SSE 04:50:39 39° E 04:54:44 10° NNE visible
01 Sep 3.2 05:03:44 10° S 05:08:07 75° E 05:12:28 10° NNE visible
02 Sep 6.0 03:46:26 10° ESE 03:48:12 13° E 03:50:12 10° ENE visible
02 Sep 3.1 05:21:20 10° SSW 05:25:39 58° W 05:29:58 10° N visible
03 Sep 5.3 04:02:10 10° SE 04:05:33 23° E 04:09:01 10° NE visible
03 Sep 3.9 05:39:23 10° SW 05:43:19 31° WNW 05:47:11 10° NNW visible
04 Sep 4.2 04:19:49 16° SSE 04:22:56 41° E 04:27:04 10° NNE visible
05 Sep 3.1 04:37:59 26° S 04:40:25 80° E 04:44:46 10° N visible
06 Sep 5.8 03:18:51 11° ESE 03:20:29 13° E 03:22:43 10° NE visible
06 Sep 3.1 04:56:03 30° SW 04:57:58 53° W 05:02:14 10° N visible
07 Sep 5.0 03:36:53 22° ESE 03:37:50 24° E 03:41:23 10° NE visible
07 Sep 4.0 05:14:04 23° WSW 05:15:38 29° WNW 05:19:25 10° NNW visible
08 Sep 3.9 03:54:51 43° ESE 03:55:14 44° E 03:59:23 10° NNE visible
08 Sep 4.7 05:32:04 15° W 05:33:26 17° WNW 05:36:10 10° NNW visible
